Theta_e
352 350 354 356 357 357 358 359 360 359 359 358 358 358 358 357 356 356 355 355 355 355 355 355 355 355 355 354 353 353 353 353 353 353 352 352 351 351 351 350 350 349 347 347 345 344 344 344 344 344 343 342 343 343 343 346 346 346 345 346 345 345 345 347 346 346 348 348 347 347 347 348 347 346 347 347 347 346 346 347 346 344 345 347 348
351 352 355 358 356 357 358 359 359 359 359 358 358 358 357 357 356 356 355 355 355 355 355 355 355 355 354 353 353 353 353 353 353 353 352 351 351 350 350 350 348 346 345 345 345 345 345 344 344 344 343 343 343 344 343 344 346 345 344 346 346 346 345 346 346 347 348 349 349 348 347 347 347 345 346 346 347 347 346 346 346 346 345 346 346
351 352 355 356 356 357 357 358 358 358 358 358 358 357 357 357 356 355 355 355 355 356 356 355 355 354 353 353 353 353 353 353 352 352 352 351 350 350 349 349 346 345 346 346 346 345 344 344 344 344 344 344 344 343 344 344 344 345 345 345 345 346 346 346 346 346 347 348 349 348 347 346 346 346 347 347 347 346 345 345 346 346 343 345 345
350 351 355 357 356 356 357 358 358 358 358 358 357 357 357 357 356 356 356 356 356 356 356 355 355 354 353 353 353 353 352 352 352 352 351 350 350 350 349 347 345 347 346 347 345 344 345 345 344 345 344 344 344 344 344 343 343 343 344 345 345 346 345 346 347 347 349 349 350 348 346 345 345 345 347 347 346 345 345 345 344 345 344 344 344
350 350 353 355 356 356 356 357 357 357 357 357 357 357 356 356 356 356 356 355 356 356 355 355 354 353 353 352 352 352 351 351 352 351 350 350 350 349 347 345 346 347 348 347 344 344 346 346 346 346 344 343 343 343 343 343 343 342 343 343 344 344 344 344 344 347 348 349 348 346 344 343 344 345 346 346 345 345 344 344 344 343 343 343 342
350 350 351 352 353 355 356 356 357 357 357 357 356 356 356 356 356 355 355 355 355 355 354 354 354 353 353 352 352 351 351 351 351 350 351 350 351 349 346 347 348 348 347 346 344 345 346 347 347 347 347 346 344 342 342 343 343 342 342 343 342 342 343 342 343 342 343 345 349 339 340 341 342 342 343 344 343 342 342 342 342 342 342 341 341
351 350 349 350 352 353 355 355 356 357 357 356 356 356 356 356 355 355 355 355 354 354 354 354 353 353 352 351 351 351 350 350 351 350 350 350 350 351 349 350 347 347 346 345 347 347 347 347 347 347 347 347 346 344 342 342 342 341 341 341 341 341 341 342 342 342 346 341 344 338 338 337 340 341 342 343 343 342 341 344 344 342 342 341 340
350 349 349 349 350 354 354 355 355 356 356 356 356 356 356 355 355 355 354 354 354 354 353 353 352 352 351 351 350 350 350 351 351 350 351 351 351 351 351 348 346 346 347 347 347 348 348 347 347 347 348 347 347 346 343 342 342 341 340 339 339 339 340 341 343 346 347 341 338 338 340 339 338 338 340 340 341 342 344 345 344 342 341 341 340
348 349 350 349 351 353 354 354 355 355 355 355 355 355 355 355 354 354 354 353 353 353 353 352 351 350 351 351 350 350 351 351 351 353 353 352 352 351 350 347 347 348 348 349 350 349 349 349 348 348 347 347 346 346 344 342 341 341 340 339 339 338 338 343 340 345 343 339 339 339 339 338 337 337 338 340 341 341 342 342 342 341 340 340 339
348 349 350 350 350 354 354 354 354 354 355 355 354 355 354 354 354 354 353 353 353 353 353 352 351 351 351 351 350 351 351 350 351 353 353 352 348 350 350 349 348 348 348 348 349 349 348 348 348 347 347 346 346 345 346 343 341 341 340 338 337 340 341 341 343 347 339 338 337 340 340 344 337 337 338 340 340 341 340 340 339 338 338 339 338
349 348 350 349 350 352 352 353 354 354 354 354 354 354 354 354 354 354 353 353 353 353 352 352 352 351 351 351 351 351 350 350 351 353 352 348 348 349 348 348 350 349 349 350 350 349 348 348 347 346 346 346 346 345 345 345 342 341 340 338 337 337 343 340 342 333 335 334 336 338 340 342 338 337 338 339 339 340 339 338 337 340 338 337 337
349 350 350 349 354 351 352 353 353 353 353 353 354 353 354 354 354 354 353 353 353 352 352 352 351 351 351 350 350 349 350 351 351 352 349 348 348 348 348 349 349 350 350 350 349 349 348 347 348 348 347 346 345 346 345 346 344 342 339 338 339 337 341 340 340 341 339 339 340 340 339 338 337 337 339 339 340 339 338 336 339 338 338 337 337
350 351 349 350 350 351 352 352 352 352 353 353 353 353 353 353 353 354 353 353 352 352 351 351 350 351 351 350 350 350 349 351 350 350 350 349 348 349 350 349 350 350 349 349 349 348 347 347 346 346 346 346 346 345 346 346 345 342 340 340 339 338 339 339 341 337 337 340 339 337 334 337 337 338 338 341 340 339 339 338 337 337 336 335 335
351 351 350 348 348 353 351 351 351 352 352 352 352 352 353 353 353 353 353 352 352 352 351 350 351 351 351 350 349 349 349 349 349 348 349 349 349 349 349 350 350 349 349 349 348 347 346 346 346 346 346 346 345 346 347 346 345 342 341 340 339 340 341 343 344 340 341 340 341 339 339 337 334 337 337 338 338 337 337 337 335 335 335 335 334
350 352 350 350 349 350 353 351 351 352 351 351 351 352 352 353 353 353 352 352 351 351 351 350 351 351 351 349 349 349 349 349 349 348 348 349 348 349 349 349 349 348 348 347 347 346 346 347 346 346 345 345 346 346 345 345 344 343 340 340 340 340 341 342 338 339 339 338 338 338 336 336 340 340 337 337 337 336 336 335 337 337 336 335 334
353 352 351 351 350 351 351 352 352 352 351 351 352 352 353 352 352 352 352 352 351 351 350 348 347 349 350 349 349 348 348 349 349 349 349 348 349 349 349 349 348 348 347 347 346 346 346 346 346 345 345 346 346 346 345 344 344 342 341 341 338 341 342 344 340 340 341 338 336 337 334 333 338 337 336 336 336 336 335 338 336 335 335 334 335
353 353 351 349 351 349 349 350 350 352 351 352 352 352 352 351 352 352 351 352 351 351 349 348 349 349 348 348 348 348 348 348 348 348 348 348 348 348 348 348 347 347 347 346 346 346 346 346 345 345 345 346 345 346 345 344 343 342 341 338 340 341 344 348 340 342 341 340 339 337 336 335 336 337 336 336 335 335 335 335 334 334 335 333 334
353 352 349 349 349 348 348 350 351 351 351 351 351 352 352 352 351 351 351 351 351 350 349 349 349 348 348 347 348 347 347 348 348 348 348 348 348 347 348 347 347 347 347 346 346 346 346 345 345 345 345 345 345 345 345 344 343 341 339 340 340 345 347 349 341 341 341 342 338 336 335 338 339 336 335 336 336 335 334 336 335 335 334 335 335
351 350 349 349 347 347 347 350 350 348 350 352 351 352 351 352 351 351 351 350 350 350 349 348 349 349 349 348 347 346 347 348 348 348 347 348 348 347 347 347 347 346 346 346 345 345 345 345 345 344 345 345 345 345 344 343 342 339 340 338 342 344 345 347 339 341 341 339 337 335 334 340 339 337 337 336 335 335 335 334 334 333 333 334 334
349 349 348 348 348 347 347 347 348 349 350 348 350 351 352 351 351 351 350 350 350 350 350 349 348 349 349 348 348 349 349 348 348 348 347 347 348 345 347 347 346 346 346 345 345 344 344 345 345 344 344 344 345 345 344 343 341 341 339 340 342 342 348 340 338 339 339 337 336 335 338 337 336 336 335 335 334 334 333 333 332 333 333 333 333
348 347 348 348 347 348 348 346 348 348 348 348 349 350 351 351 351 351 350 350 350 350 350 349 350 349 349 349 348 349 348 350 347 349 347 348 347 346 347 347 346 346 345 345 344 343 343 343 343 344 344 344 345 344 343 343 342 342 341 342 340 344 342 342 342 340 339 338 337 334 338 336 335 336 336 335 335 334 334 333 334 334 334 333 333
346 346 348 348 348 348 348 348 347 349 348 348 348 349 351 349 349 351 350 351 350 351 351 350 350 350 349 349 350 350 346 346 346 346 347 347 347 345 345 346 345 345 344 344 344 343 343 342 341 342 344 345 345 345 345 343 343 342 344 341 341 341 342 341 341 338 338 337 337 336 336 335 335 335 335 335 334 334 332 332 332 332 332 332 331
344 345 347 348 349 349 348 347 348 349 351 350 349 348 349 348 348 348 350 349 350 349 350 350 347 349 349 348 348 346 346 344 345 346 346 345 346 344 345 345 345 345 344 344 343 342 341 340 340 339 341 345 344 344 344 343 342 343 343 343 345 342 341 340 340 338 337 337 336 336 335 335 335 335 333 334 336 335 335 335 334 333 332 333 332
343 345 346 348 350 349 347 349 349 351 350 347 347 347 347 347 345 346 346 346 349 348 347 348 350 346 344 343 345 343 343 346 346 346 346 346 345 344 344 344 344 343 343 343 343 342 341 340 340 339 338 343 344 344 343 344 343 343 345 345 341 340 341 341 336 337 339 336 334 335 334 334 334 335 335 334 334 334 334 334 333 332 331 331 331
344 347 346 346 347 349 349 349 348 348 348 347 347 345 347 346 344 347 346 345 345 346 349 351 347 345 341 340 342 341 342 345 345 345 343 344 346 344 344 343 344 344 343 343 341 339 339 337 337 337 338 339 339 343 344 344 344 343 346 343 341 342 340 341 339 339 339 339 337 336 336 335 335 335 334 335 334 334 334 333 332 332 332 332 331
346 343 343 346 344 347 348 348 347 348 348 347 346 345 345 344 343 344 347 349 350 351 350 346 345 344 342 340 342 344 342 343 344 342 340 341 340 339 342 341 340 341 341 338 338 336 338 338 335 333 337 339 340 341 343 345 343 343 343 344 342 342 341 341 339 340 340 339 339 338 337 336 336 335 334 334 335 334 333 334 333 332 332 331 331
344 342 343 342 345 344 346 351 347 348 348 347 346 345 345 345 348 347 345 343 346 347 346 345 343 344 343 342 342 340 339 337 339 341 340 341 339 338 339 341 340 338 339 338 340 340 339 337 337 338 339 337 339 342 342 345 345 343 344 344 341 342 343 341 341 341 340 339 339 339 339 338 336 334 334 334 335 334 334 333 332 332 332 332 331
344 344 343 343 344 346 347 347 349 348 346 348 346 346 349 349 349 347 347 347 347 347 346 345 344 343 342 342 344 344 341 340 342 343 343 345 343 344 343 340 342 341 342 342 340 337 338 339 341 340 337 338 338 341 341 340 343 345 340 342 341 342 343 341 343 342 340 339 339 340 340 338 336 335 335 335 334 334 334 333 333 333 332 331 331
343 345 343 342 346 345 347 347 351 348 348 348 347 347 347 348 347 347 346 346 347 346 344 343 342 341 341 342 344 348 342 342 343 343 343 343 343 343 340 339 341 340 341 342 341 342 340 339 340 338 338 337 336 337 337 337 345 344 340 341 339 340 342 343 343 341 338 339 340 340 340 338 335 335 334 334 334 334 335 335 334 333 333 332 331
345 345 347 347 345 345 343 343 343 346 346 345 348 344 347 345 347 346 346 346 345 344 343 341 341 342 344 345 348 348 342 342 342 342 339 340 339 341 341 340 341 340 341 341 341 340 338 337 337 337 333 334 334 335 337 337 338 341 341 335 340 340 342 341 341 341 339 340 341 339 338 336 335 335 335 336 336 336 336 335 335 335 334 332 332
343 346 346 345 345 343 344 342 344 343 346 345 346 345 344 344 345 347 345 343 343 342 342 343 344 343 344 346 347 346 345 343 343 342 342 341 341 342 342 342 343 343 344 342 344 343 342 341 340 340 338 336 334 334 334 338 342 339 342 339 339 340 339 339 339 339 338 339 339 339 336 336 336 336 336 337 337 337 336 336 336 335 335 335 335
345 346 346 345 341 346 345 345 345 344 346 344 346 344 344 344 346 344 344 343 343 343 344 346 345 344 347 349 347 349 346 344 344 343 343 343 342 343 344 344 343 343 345 344 343 345 345 344 345 345 345 342 342 339 335 340 337 342 340 340 339 339 340 340 336 338 339 340 339 338 338 337 337 337 337 336 337 337 337 338 337 336 336 336 335
344 345 345 342 342 345 344 344 345 346 346 343 345 346 342 342 343 343 346 344 344 342 341 341 343 345 346 347 348 347 346 346 346 344 343 343 343 344 343 345 344 345 346 346 344 345 344 343 342 344 341 341 341 340 337 339 338 339 341 340 339 337 338 338 340 337 341 340 339 338 337 337 337 340 338 338 337 337 337 337 338 338 337 337 337
343 346 346 340 344 346 345 344 340 341 342 345 346 344 344 343 342 344 344 345 344 343 342 346 345 346 346 347 348 347 347 347 346 346 344 343 344 344 343 343 344 345 346 346 343 342 341 340 342 339 339 340 339 339 336 336 336 340 342 340 339 339 341 340 339 338 341 339 342 334 334 337 340 335 337 338 337 337 337 337 337 337 337 337 337
344 343 343 345 346 345 344 342 339 341 343 340 345 344 344 343 343 343 345 346 343 342 342 344 343 345 346 346 348 346 347 346 346 346 346 344 343 343 343 344 345 345 343 344 345 342 343 342 340 338 338 337 337 336 336 340 338 340 341 341 339 341 342 343 344 342 339 338 337 334 337 337 337 339 336 337 338 337 337 337 337 337 337 336 336
345 345 345 346 346 347 347 341 340 341 341 345 346 345 346 344 343 343 342 345 343 342 342 344 345 344 344 345 346 346 346 346 347 347 346 344 342 343 345 345 345 344 343 344 344 341 341 341 340 342 337 336 338 337 340 339 338 338 338 342 341 341 340 341 341 338 336 339 336 337 336 337 338 339 338 336 337 338 337 337 337 337 336 337 336
346 345 344 345 345 346 348 345 344 348 344 342 346 344 346 343 343 342 344 345 343 342 343 344 343 344 342 341 345 345 346 346 347 347 346 344 340 340 346 346 345 344 344 344 342 343 341 340 341 342 341 342 333 333 335 336 338 337 338 338 338 341 341 336 337 339 336 337 335 337 338 337 337 338 340 338 337 338 338 337 337 336 337 336 336
346 346 346 345 343 344 346 346 346 346 347 344 344 344 345 343 342 343 345 343 343 342 344 342 342 341 341 341 344 345 345 345 346 347 348 343 341 341 343 344 345 344 347 344 341 342 340 341 339 341 339 338 335 335 335 336 337 335 333 335 336 338 336 336 336 337 335 335 335 337 336 338 338 339 340 341 339 337 337 336 336 335 335 335 336
346 346 347 346 346 345 344 348 344 346 345 345 345 345 343 342 344 344 344 344 342 343 344 343 341 340 344 342 343 345 345 346 347 346 347 344 342 341 344 345 344 343 342 342 342 341 341 341 340 339 341 338 335 336 335 335 334 333 331 333 334 335 333 334 338 339 334 335 337 336 338 338 340 340 340 342 341 339 337 336 336 336 335 335 336
345 345 345 346 345 346 345 343 347 343 344 344 345 340 340 338 337 340 341 341 342 339 341 341 342 341 342 342 343 344 344 346 346 347 346 343 341 343 344 344 344 342 340 340 339 339 340 341 340 339 338 337 337 338 337 337 332 332 329 333 334 335 332 336 335 334 334 338 336 337 337 337 338 339 339 338 340 338 337 337 336 337 332 334 335
345 345 345 344 345 343 343 341 342 346 344 339 338 337 336 337 339 339 338 340 339 341 340 342 341 340 341 342 344 344 344 345 345 346 344 342 342 342 343 343 342 341 340 341 341 340 341 341 339 339 337 335 335 337 337 336 332 331 333 334 333 334 335 333 334 335 333 334 335 335 337 336 338 337 337 337 335 336 337 337 335 333 335 332 336
341 343 343 343 345 345 344 344 342 343 342 343 343 340 337 337 337 335 338 338 340 339 339 341 345 341 341 342 343 344 344 345 344 344 344 343 341 342 341 341 341 340 341 342 341 339 340 339 339 336 336 334 334 337 336 336 329 327 327 328 330 333 334 333 335 337 334 334 333 335 336 334 334 335 336 334 333 335 336 336 333 333 334 333 334
341 343 344 344 344 344 344 343 341 340 339 338 339 337 338 338 340 340 338 338 341 340 341 343 340 338 340 341 344 344 344 343 344 343 344 342 342 340 340 340 340 340 339 339 339 339 339 338 338 335 333 335 334 335 337 337 331 332 332 326 322 321 327 332 332 333 333 334 333 334 336 332 332 333 333 335 334 333 336 335 333 333 335 334 335
341 342 342 343 342 343 341 340 337 339 339 339 337 338 337 337 336 335 337 339 338 342 341 341 339 339 339 343 340 344 342 342 342 342 341 342 342 342 340 339 341 340 339 339 338 338 339 339 339 337 335 331 331 331 338 338 335 329 321 324 324 323 318 322 326 331 333 334 335 334 334 331 331 332 335 335 335 334 331 332 333 334 335 336 335
341 341 342 343 342 341 341 337 335 338 338 338 338 338 333 332 333 336 334 334 338 337 336 335 336 336 334 335 340 341 342 340 341 341 340 341 343 342 340 340 339 341 339 338 337 336 337 338 339 337 335 332 330 332 332 334 334 336 330 324 322 319 319 323 325 325 331 329 333 334 332 330 332 334 336 336 334 331 331 331 333 334 332 335 335
341 342 342 342 343 343 339 338 340 339 338 338 335 336 332 333 332 330 328 330 330 332 330 329 332 331 331 338 338 341 342 340 340 341 340 340 342 342 342 339 340 340 338 339 336 335 335 335 337 338 336 336 334 329 332 333 334 335 334 336 329 322 321 325 323 317 330 331 330 332 330 331 332 333 333 332 328 328 330 330 331 332 333 332 334
341 344 343 343 342 341 339 338 339 333 336 334 333 334 333 334 332 332 332 331 331 331 336 337 333 336 334 336 339 342 342 342 342 342 342 342 343 342 342 341 339 338 339 339 338 336 334 335 337 338 337 336 335 330 331 329 333 335 336 336 337 333 333 326 321 323 318 326 331 330 331 332 332 333 329 327 327 327 328 328 329 329 330 331 330
341 343 343 337 341 333 334 342 334 331 330 334 331 333 333 334 334 334 333 330 333 332 334 334 334 334 340 337 340 342 343 343 340 339 339 337 339 342 343 342 340 340 338 339 338 339 337 336 337 339 337 337 336 333 330 330 329 330 333 333 332 333 332 331 329 325 321 320 321 327 332 333 332 330 328 327 326 325 325 324 321 322 324 326 326
341 335 329 329 330 331 332 332 332 330 332 335 333 333 334 335 335 334 332 334 335 335 334 333 334 335 332 340 339 340 339 339 339 339 338 338 338 338 338 337 340 340 336 338 339 338 339 336 338 336 338 337 338 337 336 330 329 328 331 332 333 332 333 332 331 328 325 321 319 321 323 330 331 329 328 327 324 323 321 320 318 317 319 320 321
339 332 328 327 328 331 332 331 327 332 333 335 334 332 331 333 334 333 334 331 332 332 331 332 332 333 335 336 339 339 339 338 340 339 339 338 338 338 337 337 338 337 335 335 336 337 339 339 339 338 337 336 337 337 335 336 333 330 331 330 332 331 328 329 329 327 328 326 321 319 322 322 321 324 327 324 324 322 320 320 319 317 317 318 318
337 335 328 325 327 331 329 330 329 333 333 335 333 331 331 333 333 332 331 330 331 332 331 332 333 331 331 332 337 337 338 338 339 340 339 338 339 339 338 337 338 338 335 336 338 338 339 339 339 339 335 336 337 337 336 336 337 334 333 335 331 328 326 323 327 327 326 324 322 322 323 324 322 320 323 325 323 320 318 318 316 315 315 315 315
Wind_Speed
14 18 17 16 12 13 16 13 13 14 15 16 17 17 18 20 20 20 20 19 18 17 17 16 16 16 15 15 14 13 12 13 13 13 13 13 13 13 12 12 13 12 13 13 12 13 13 12 12 12 11 11 12 13 13 16 17 14 15 15 14 14 15 15 15 17 17 18 18 18 18 17 17 17 16 15 16 15 15 13 12 12 12 15 17
16 16 15 15 13 13 14 14 13 14 15 16 17 18 18 19 20 20 20 19 17 17 16 16 17 15 15 15 14 13 13 13 12 13 13 13 12 13 12 12 12 12 13 13 13 14 13 13 12 12 13 12 12 13 12 14 16 14 13 15 14 14 13 14 14 16 16 16 17 19 19 17 16 17 15 17 18 18 17 15 15 12 11 17 18
16 15 14 16 17 15 16 14 14 15 16 16 18 18 18 19 19 19 19 18 17 16 15 16 16 15 14 13 13 13 13 12 12 12 13 12 12 13 13 12 12 13 13 13 14 13 13 13 12 12 12 12 12 12 12 13 13 14 13 13 13 11 11 11 12 13 16 17 17 19 20 20 17 16 18 18 18 18 18 18 17 16 13 17 16
16 14 14 15 15 13 14 15 15 16 16 16 18 18 18 18 19 18 18 18 16 16 15 15 14 13 12 12 12 12 13 12 13 13 12 12 13 13 12 12 12 13 13 14 13 12 13 13 12 12 12 12 11 11 11 12 13 11 12 11 10 10 9 9 9 11 15 16 17 14 11 13 14 17 17 17 17 17 16 17 17 17 17 17 17
16 15 13 13 14 13 14 14 15 16 16 17 17 18 19 18 18 18 18 17 16 16 15 14 14 13 12 12 12 11 11 12 12 13 12 12 12 13 12 13 14 14 14 14 12 13 12 12 13 12 12 11 11 11 11 11 11 11 10 9 9 9 7 5 4 8 10 14 10 8 10 12 12 16 16 16 16 16 15 16 16 16 16 17 16
16 14 13 13 13 14 14 14 16 16 16 17 17 18 18 18 19 18 17 16 16 16 15 15 14 13 13 12 12 11 11 11 12 11 11 12 11 12 12 14 13 14 14 13 12 13 11 12 11 12 12 12 11 11 10 11 11 10 9 8 7 8 6 3 4 2 3 9 10 4 9 10 10 10 14 14 14 14 13 14 14 13 13 14 15
16 14 13 13 12 14 13 15 19 16 16 17 18 18 18 18 18 17 17 17 16 16 15 14 13 13 13 13 13 12 12 12 12 11 11 11 10 9 13 14 14 14 12 13 12 12 11 10 11 11 11 11 10 10 10 10 10 10 9 7 7 5 6 5 5 3 6 5 8 4 7 10 9 8 12 12 12 13 14 16 15 14 14 14 15
14 12 14 13 12 14 13 16 19 17 17 18 18 18 18 18 17 17 17 16 15 15 15 14 13 13 13 13 13 13 12 12 11 11 10 10 10 11 13 14 13 13 13 12 11 11 10 10 10 10 10 10 10 9 9 9 9 9 9 7 5 5 3 5 5 8 10 7 8 7 8 10 9 8 10 10 11 11 14 15 14 14 15 15 14
14 14 14 13 14 17 14 16 16 19 18 19 18 18 18 19 18 17 17 16 16 15 15 14 13 14 14 12 12 12 11 11 11 11 10 9 9 14 11 12 13 13 12 10 9 9 9 8 8 8 7 8 9 9 8 8 8 8 8 7 6 4 4 7 9 10 5 7 8 8 8 10 10 9 10 12 12 12 11 12 14 15 15 14 14
14 13 13 13 15 15 14 15 17 18 17 17 19 20 19 19 18 17 17 17 16 16 15 14 14 14 13 12 12 12 12 11 11 12 10 8 8 9 12 11 12 12 10 10 10 9 8 8 7 7 7 7 7 8 8 7 7 8 7 6 4 4 9 9 7 9 6 8 10 13 14 13 11 10 11 11 12 14 16 17 14 12 11 14 15
14 12 12 13 18 14 15 15 16 17 17 17 18 19 19 19 18 16 16 16 16 15 14 14 14 14 12 12 12 12 11 11 13 13 11 11 9 10 12 12 10 10 11 10 9 9 8 7 7 7 6 6 6 6 6 6 6 6 5 3 3 5 6 9 13 5 8 10 9 9 13 13 10 9 11 12 12 15 16 14 14 16 16 15 15
14 13 13 14 17 14 14 15 15 16 18 17 17 18 18 17 16 16 16 15 15 15 14 14 13 13 12 11 12 12 12 13 13 13 12 12 11 11 12 10 9 10 10 10 9 8 7 7 8 7 5 5 4 4 4 6 5 5 2 1 4 4 6 10 11 5 8 10 12 11 11 12 11 11 14 13 15 15 14 13 14 14 15 15 15
16 14 14 15 16 13 14 14 15 15 16 16 17 19 19 18 16 15 15 13 14 14 14 14 13 12 11 11 12 12 12 13 13 14 12 12 12 12 11 11 11 11 11 10 8 9 8 7 7 6 4 3 3 3 5 6 6 4 1 2 4 8 7 11 8 8 7 8 9 10 11 10 11 13 13 15 15 14 14 13 13 13 13 14 13
15 15 15 15 14 17 13 13 14 15 16 16 16 15 15 15 14 14 13 13 14 14 13 14 12 11 11 11 12 12 12 12 13 13 13 12 12 12 11 11 11 11 10 10 9 8 7 7 6 5 4 4 4 5 6 7 7 4 1 4 7 8 10 15 2 8 9 10 10 12 11 10 10 11 11 13 13 13 12 12 12 13 14 14 13
16 16 16 14 15 16 16 13 13 14 14 14 14 14 14 14 13 12 13 14 14 14 13 11 10 11 11 11 9 11 12 13 13 13 12 11 12 12 11 12 11 12 11 10 9 8 8 8 7 6 5 7 6 6 8 8 6 3 2 4 8 8 14 9 4 5 7 9 9 11 11 9 7 12 13 12 12 12 12 12 14 14 14 13 14
16 17 16 15 15 15 15 16 13 14 13 13 14 14 14 13 13 13 13 13 13 13 13 13 12 11 10 10 8 9 13 14 12 12 10 11 11 11 11 12 12 12 10 10 9 8 8 7 6 6 7 7 8 8 8 7 6 3 2 5 6 10 12 11 3 4 7 8 9 10 10 9 10 13 13 13 12 12 12 14 14 13 12 13 14
16 17 17 17 17 15 14 14 15 14 12 13 13 14 14 14 14 13 13 13 14 14 15 15 13 11 12 11 9 10 11 12 12 12 12 11 12 11 12 11 12 12 11 10 9 9 8 7 7 6 7 8 8 9 8 7 6 5 2 5 5 11 11 11 5 6 6 8 9 9 9 9 11 12 13 13 13 12 12 11 12 13 14 12 13
16 17 17 17 16 15 14 14 14 14 13 13 13 12 13 13 13 14 14 13 13 13 13 12 12 12 13 12 12 12 13 12 12 12 12 12 12 13 12 12 12 12 11 10 10 9 8 7 7 7 8 8 8 8 8 7 6 5 1 5 8 8 9 11 8 6 7 10 10 9 8 9 9 11 11 12 12 12 11 12 12 12 12 14 13
14 15 16 17 16 16 16 14 14 14 14 11 12 12 14 13 14 14 14 14 14 13 15 13 13 13 13 14 15 13 12 12 11 10 12 12 13 14 14 13 13 12 11 11 10 10 8 7 6 7 8 8 9 9 8 7 6 4 4 5 8 8 10 8 7 7 8 8 9 8 8 6 10 12 11 11 11 11 11 10 11 11 11 11 12
13 14 14 15 16 16 15 14 13 14 13 12 12 12 14 15 14 13 14 15 15 14 13 14 15 15 14 14 14 12 12 11 12 11 13 12 13 11 15 14 14 12 11 10 11 9 8 8 7 7 8 8 9 9 9 7 4 6 5 7 8 8 5 7 8 9 8 8 9 8 8 10 11 11 11 11 11 11 10 10 10 10 11 12 11
10 12 13 13 15 16 16 13 14 15 14 13 12 12 13 15 14 15 15 15 15 15 14 13 13 14 13 11 10 9 8 7 9 9 12 10 9 13 14 15 14 13 11 9 9 8 6 7 8 7 7 9 9 10 9 7 4 6 7 7 7 7 4 3 6 7 8 8 8 8 10 10 9 11 12 10 10 10 10 10 10 10 11 11 11
12 12 13 13 13 14 15 15 14 16 14 12 10 10 12 13 13 13 12 13 14 14 13 11 12 11 11 9 4 4 4 4 4 8 7 9 10 13 14 14 14 13 11 10 8 6 5 5 7 7 7 8 12 8 8 8 7 8 7 8 7 2 2 5 5 6 8 7 8 8 8 9 9 10 11 10 9 10 9 9 9 9 10 10 10
12 12 10 13 12 11 13 14 15 14 15 13 11 11 13 11 13 12 10 13 12 12 10 11 9 8 9 5 4 2 2 4 6 6 7 8 11 13 14 14 14 13 11 10 9 6 4 2 5 8 7 10 9 6 6 6 6 9 9 7 4 4 3 3 5 5 8 8 8 9 8 7 10 10 9 9 11 10 9 9 10 10 9 10 10
13 12 11 10 10 8 11 12 13 14 13 12 11 11 11 11 11 11 10 10 10 8 8 8 7 8 6 4 3 2 2 1 5 10 11 9 10 13 14 14 13 12 12 9 9 8 7 4 4 5 7 7 6 4 5 5 5 5 4 4 3 4 3 3 4 6 8 9 8 9 8 8 8 9 10 8 8 9 9 9 10 9 9 9 10
11 9 7 7 6 7 7 9 13 13 13 11 11 11 11 10 10 9 10 9 9 8 7 5 6 7 5 4 4 3 3 4 7 7 8 8 9 10 10 8 8 9 12 7 7 7 7 6 5 6 6 6 5 5 3 5 5 5 5 3 4 3 3 4 5 6 7 7 8 8 8 7 8 8 8 9 9 9 9 8 9 9 9 9 9
10 10 10 7 8 10 11 12 13 14 12 11 11 11 11 10 11 10 8 8 7 7 6 6 5 5 7 8 6 6 6 7 9 9 8 8 7 7 7 7 7 8 9 5 6 7 7 7 6 7 7 4 4 5 6 5 4 4 3 2 2 4 4 5 6 6 7 7 8 9 8 8 7 7 8 8 9 8 8 8 9 8 8 8 8
10 11 11 10 10 11 10 11 12 12 12 11 11 10 10 8 8 9 10 8 8 6 6 6 4 6 5 6 7 10 13 10 9 8 8 8 7 7 6 6 6 6 7 5 6 6 6 6 7 7 6 7 7 6 5 7 7 5 6 7 7 5 4 6 6 6 7 8 8 9 8 8 8 8 8 8 8 8 8 8 8 8 7 7 8
10 11 12 12 13 16 15 13 12 13 11 10 10 10 7 7 8 8 7 7 7 6 6 6 5 5 5 4 6 10 8 9 8 7 6 5 5 4 5 5 4 4 5 5 5 5 5 4 5 7 5 4 4 5 5 5 6 4 4 5 5 4 3 5 6 7 7 7 8 9 9 8 9 8 8 8 8 8 8 8 8 8 7 7 7
10 9 12 13 13 13 12 9 10 12 8 10 8 7 7 7 7 7 7 7 6 6 6 4 6 4 6 10 10 5 8 8 7 7 6 6 5 4 4 4 3 3 3 2 4 3 3 3 3 3 3 4 5 5 5 6 2 2 5 6 6 5 4 4 6 7 7 7 7 9 11 10 9 8 8 8 8 8 8 8 8 7 7 7 7
7 10 9 10 13 5 10 11 7 9 10 8 8 8 5 4 7 7 6 6 6 6 5 6 4 4 5 7 7 3 6 7 7 7 7 7 6 6 5 4 4 4 4 3 3 4 4 5 6 6 5 5 6 6 6 6 7 3 7 8 5 4 3 4 5 6 8 7 7 8 11 10 10 9 8 8 8 8 8 9 8 8 8 7 7
7 10 8 7 8 11 7 7 9 7 9 9 7 9 7 6 8 7 7 8 8 6 6 5 5 6 9 7 6 7 5 6 6 6 6 7 6 5 4 4 3 3 3 4 4 3 3 4 5 5 5 5 6 6 9 7 3 4 1 7 8 7 1 4 5 8 6 8 8 8 9 11 10 9 7 6 7 8 8 8 8 8 7 7 7
11 10 8 8 8 10 10 11 8 6 4 4 6 11 8 7 7 7 8 8 8 6 5 7 6 8 6 7 6 6 5 5 6 6 7 6 6 5 4 4 3 3 3 3 4 3 4 4 4 4 7 7 8 8 7 7 9 5 6 6 6 3 3 2 3 10 7 6 7 7 8 9 9 9 9 8 7 6 7 8 9 8 8 8 7
8 10 9 11 8 10 11 10 6 6 7 10 8 8 10 10 8 8 7 9 9 7 5 7 8 5 6 6 6 7 6 5 5 6 7 6 6 5 5 4 3 4 3 3 4 4 4 4 5 4 3 5 3 3 4 7 9 3 3 5 5 2 2 5 1 6 7 6 6 6 5 5 8 8 9 9 8 6 6 7 8 8 7 7 7
9 7 10 10 10 7 6 7 7 7 6 3 6 7 9 10 10 8 9 9 9 9 9 7 5 6 7 7 7 7 6 6 6 6 6 6 6 5 5 4 4 4 3 4 4 4 5 5 5 5 4 4 5 3 4 3 11 4 2 5 5 4 3 4 5 4 7 5 4 9 5 2 2 5 8 9 7 5 5 5 7 7 6 5 5
9 11 12 14 11 10 9 8 9 8 9 10 8 7 7 7 9 9 7 8 8 7 7 7 7 6 7 7 7 7 7 7 7 6 5 5 6 5 5 4 4 4 4 4 5 5 3 4 4 5 4 4 2 3 2 0 9 4 2 3 4 3 2 2 3 5 4 4 6 7 7 4 3 1 6 7 8 8 6 6 7 7 6 5 4
11 11 13 13 13 13 12 13 12 13 13 8 6 5 5 6 7 9 8 8 8 7 7 6 6 6 6 7 7 7 6 7 7 6 5 5 6 5 3 4 5 4 4 4 4 4 3 3 4 2 1 4 4 2 4 4 5 8 6 1 3 1 4 2 4 4 9 3 7 5 5 5 5 4 4 6 6 7 8 8 8 6 6 5 4
12 12 13 15 15 15 13 14 16 15 13 13 10 9 6 7 7 9 8 7 7 6 6 6 6 6 6 7 7 7 7 7 6 7 5 5 5 6 5 5 5 4 3 4 4 3 2 2 1 4 6 4 4 4 5 3 4 3 4 3 2 0 2 1 4 2 10 2 5 5 4 7 7 7 5 5 6 6 7 9 10 9 8 7 5
13 13 13 14 15 15 14 14 14 14 12 13 11 9 6 2 5 6 7 8 7 5 4 4 6 6 7 7 8 7 6 7 7 6 4 4 4 4 5 6 5 4 4 4 3 5 4 3 3 2 3 4 4 3 4 4 4 6 3 1 2 2 4 3 7 8 6 4 3 3 4 5 5 5 5 4 5 5 5 7 10 9 9 7 7
11 13 13 13 13 13 13 13 13 13 10 11 9 8 5 3 3 7 8 7 5 6 6 6 6 6 3 5 8 7 7 7 6 6 4 4 4 4 4 6 5 4 5 4 4 3 2 3 4 3 2 4 1 2 2 3 6 7 5 3 1 3 0 4 7 7 6 4 4 4 5 5 4 4 5 4 4 4 4 5 3 3 5 7 7
11 12 13 13 14 14 12 12 11 12 9 7 9 5 6 5 7 8 8 6 4 5 6 6 6 7 9 8 9 8 7 7 7 6 5 5 4 5 5 6 5 5 5 5 4 4 4 5 4 4 4 4 3 3 3 3 9 6 6 4 2 2 5 8 3 6 4 5 6 4 4 4 4 4 4 4 3 4 4 4 3 2 4 5 6
13 13 13 14 14 13 13 14 12 12 10 11 8 12 8 6 6 8 7 7 6 6 6 6 5 7 9 8 8 7 8 7 7 7 7 6 4 5 5 5 6 5 5 5 4 4 5 5 4 4 5 4 3 3 4 6 5 5 4 5 4 3 0 6 3 3 5 5 7 6 4 4 4 4 3 3 1 2 2 3 3 2 2 6 7
13 14 14 15 14 13 13 10 11 12 10 4 6 7 9 7 7 9 7 8 7 7 7 6 2 5 4 6 8 7 9 7 7 6 7 7 6 3 4 5 5 5 4 4 5 4 5 5 4 5 4 6 4 6 3 5 3 5 6 5 4 3 3 3 3 2 5 7 6 3 3 2 2 3 2 4 0 2 2 5 7 7 7 5 6
14 13 14 14 14 11 10 10 10 8 8 8 7 4 2 4 7 5 6 7 5 4 3 1 3 2 5 8 5 8 7 8 8 8 6 6 6 6 5 5 6 4 5 4 4 5 5 5 5 4 6 3 3 3 5 4 3 5 5 6 5 5 3 3 4 4 3 4 5 2 4 5 5 4 3 2 2 5 7 4 6 5 9 7 7
12 12 13 15 14 13 11 7 4 5 8 9 7 10 4 6 10 7 7 1 3 2 3 3 2 2 4 6 7 5 9 7 9 8 7 6 5 3 5 6 4 5 5 4 5 6 5 5 5 5 5 6 5 7 5 4 1 5 6 3 5 3 5 4 4 3 4 4 5 3 3 6 4 2 2 3 3 4 4 6 6 8 8 6 7
13 14 13 13 12 14 11 9 12 12 7 8 6 8 9 6 7 8 4 2 5 4 1 1 2 3 3 5 8 8 8 8 8 8 8 7 5 7 4 3 6 6 4 3 5 5 6 6 6 5 5 4 5 5 2 3 3 2 2 3 3 3 2 5 5 5 4 4 4 3 4 2 4 3 2 4 5 4 5 7 6 7 9 8 7
15 14 15 13 13 6 8 12 9 6 6 8 7 7 8 8 8 7 7 6 6 6 6 7 5 4 7 10 10 8 8 8 8 8 8 7 8 7 6 7 5 4 6 5 6 6 6 7 6 5 6 3 2 8 6 5 4 4 5 4 3 2 2 6 5 4 2 5 6 4 6 6 5 4 4 4 6 7 6 6 6 6 7 8 7
18 16 13 11 10 9 10 10 6 7 2 9 9 7 8 8 8 8 8 6 8 7 6 4 5 4 7 7 8 7 8 8 7 7 7 6 7 7 7 7 7 7 5 5 4 4 7 6 6 6 5 4 3 5 6 6 3 4 4 3 3 2 3 5 3 6 6 4 4 4 3 6 5 5 4 4 6 6 6 6 7 7 7 6 7
15 12 7 1 3 3 6 5 8 9 3 7 7 4 7 8 9 7 6 5 4 7 4 4 2 6 5 9 7 8 8 7 8 8 8 8 7 7 7 6 5 6 6 6 6 6 5 5 6 5 5 5 5 4 5 6 6 3 4 4 3 1 4 3 4 0 1 6 6 4 5 6 6 5 5 6 7 5 6 6 7 7 6 7 7
7 6 8 7 7 5 4 6 8 11 11 11 11 7 5 6 7 8 8 6 7 4 3 4 2 4 10 10 4 5 7 7 7 7 7 7 7 7 7 7 6 5 5 5 5 5 6 5 6 5 3 4 3 2 2 4 5 3 5 4 2 2 2 5 5 3 4 5 7 7 7 5 5 6 6 6 7 6 5 6 7 8 7 7 7
9 11 11 9 4 5 4 9 12 7 6 12 11 10 3 4 7 8 9 9 7 5 3 4 6 6 6 4 7 7 5 6 6 6 6 6 6 6 6 7 6 5 5 4 5 6 5 6 5 5 4 4 2 4 4 3 3 4 6 6 3 3 2 1 3 4 3 3 5 8 7 8 7 6 5 6 7 7 6 6 7 7 7 6 7
7 12 10 8 3 5 7 8 7 3 7 8 10 10 9 9 9 9 8 9 8 7 7 5 3 4 1 7 6 6 7 6 5 5 5 6 6 5 5 5 5 4 4 4 4 5 6 5 5 5 6 5 4 4 6 5 4 6 7 2 1 2 1 3 2 4 3 3 7 7 8 8 9 8 8 7 6 7 7 5 6 6 6 7 7
Wind_Direction
130 129 124 123 129 131 136 124 125 134 133 132 130 126 125 128 129 129 130 131 132 132 128 128 128 127 125 125 123 124 124 125 123 123 118 116 117 116 115 115 114 111 107 110 107 102 98 99 96 94 91 92 95 94 90 88 76 75 82 84 87 87 86 85 90 89 88 87 86 84 81 80 76 73 69 63 69 68 75 71 77 78 73 68 65
133 127 125 127 123 129 130 123 123 130 132 133 131 127 126 128 129 129 130 131 131 131 131 132 132 131 130 129 126 128 128 126 126 125 120 120 121 121 119 116 116 116 114 116 115 103 105 105 101 98 95 93 98 94 89 86 77 77 85 89 88 87 89 93 94 98 100 101 96 90 86 78 78 84 84 74 67 64 66 65 63 68 69 68 68
126 133 126 126 126 131 130 124 125 128 133 134 132 129 128 129 128 128 129 130 131 132 133 135 134 133 131 128 128 131 132 130 127 121 122 124 124 123 121 122 120 117 120 121 114 111 104 102 104 102 100 95 95 102 91 92 87 81 83 82 90 88 84 88 96 101 101 100 96 93 91 86 74 71 73 71 69 66 62 61 61 63 63 63 67
127 134 124 122 121 122 125 123 127 131 132 132 132 131 130 128 128 129 130 131 133 133 135 136 134 130 130 128 130 130 132 132 128 125 128 130 127 125 126 129 131 125 127 119 118 121 107 105 102 99 100 99 95 97 89 84 82 77 80 89 89 90 98 102 106 115 120 122 130 117 97 93 86 74 71 71 71 71 72 72 71 69 67 60 59
136 136 125 131 130 124 128 128 130 131 132 129 130 132 132 131 130 131 130 131 132 134 133 134 133 131 129 129 130 132 129 129 133 133 133 133 131 130 132 131 128 131 129 125 128 121 115 110 103 98 94 95 96 101 96 94 88 82 76 74 74 75 82 95 131 138 150 150 152 122 97 92 85 73 72 72 70 64 65 67 71 74 78 73 65
126 136 137 136 134 134 129 131 130 128 130 131 130 132 133 132 132 131 130 130 132 132 132 134 133 132 129 132 136 138 133 133 135 135 135 131 130 136 137 131 132 133 130 131 131 120 121 114 107 104 98 94 95 93 94 94 92 87 81 71 70 64 49 19 355 24 337 237 222 120 113 100 86 84 76 76 80 76 70 69 66 68 74 81 80
132 139 140 138 135 136 131 131 133 128 129 130 130 132 133 132 132 131 131 130 131 130 129 131 135 135 136 141 146 144 140 138 137 142 139 137 137 140 135 133 138 131 128 132 129 127 124 120 113 107 99 92 93 93 96 97 97 93 86 76 62 53 26 358 312 309 257 243 207 96 84 91 97 86 80 77 79 82 78 69 67 69 71 70 66
130 146 142 139 139 136 136 134 134 130 131 130 131 133 131 131 130 132 132 130 129 129 132 137 138 141 143 146 149 146 145 144 144 147 143 139 139 135 137 140 133 134 137 137 134 127 126 122 117 113 104 94 88 92 90 92 94 93 89 83 63 42 358 297 286 256 236 204 72 70 76 86 88 89 76 81 71 74 79 79 72 66 63 59 66
140 142 142 134 136 138 139 137 137 137 134 133 132 132 130 130 132 132 132 133 133 135 138 142 143 143 148 149 145 146 149 151 149 141 135 146 143 146 149 132 138 140 142 141 138 137 134 128 126 122 113 100 88 90 92 89 94 93 90 83 68 19 314 314 305 310 296 78 69 56 97 97 92 91 73 73 79 87 87 95 96 76 64 66 69
143 138 138 141 144 140 140 139 138 137 136 131 135 135 133 133 134 135 136 137 139 139 142 146 147 148 148 148 150 152 156 155 151 141 140 144 133 132 126 134 144 144 140 143 135 135 134 130 126 123 111 100 100 91 94 88 87 92 93 97 125 171 237 234 258 258 52 63 78 66 51 65 78 81 89 82 82 74 73 65 59 65 75 82 76
132 133 138 137 143 140 141 140 139 140 136 136 137 135 134 136 134 135 138 141 141 142 145 148 151 150 148 149 151 154 150 149 153 136 143 143 135 132 137 143 149 144 141 135 133 138 130 123 120 109 95 94 88 93 91 100 88 85 91 143 193 229 286 282 296 71 85 88 91 86 75 74 77 86 93 89 80 78 74 71 74 69 75 76 79
140 135 139 139 134 140 143 142 140 140 142 141 140 139 138 135 136 138 141 141 143 147 148 149 149 150 147 149 152 150 149 141 144 137 145 140 143 141 139 143 133 128 131 136 143 127 116 95 75 74 67 69 76 90 100 108 107 86 82 9 260 284 296 291 293 76 76 80 78 76 83 85 85 87 88 88 78 72 73 81 78 80 76 72 71
143 135 129 137 146 138 143 143 143 143 143 143 142 143 141 140 137 137 139 140 144 148 149 142 144 145 145 149 148 147 146 141 138 143 138 140 148 143 139 139 130 135 139 135 122 113 93 77 73 65 66 66 79 111 117 119 113 105 88 286 308 265 258 266 280 87 97 93 94 87 87 87 88 82 85 85 82 81 80 80 82 83 78 76 76
143 134 132 143 144 142 140 142 144 146 145 147 145 138 133 131 134 136 139 141 142 141 142 146 149 145 145 147 146 149 152 140 139 140 138 142 145 137 138 133 132 133 127 120 115 107 97 87 77 69 67 72 82 102 126 125 110 126 169 241 264 300 313 292 257 66 65 72 70 77 77 76 87 104 90 80 85 90 89 84 84 84 80 80 83
138 136 138 137 142 148 140 141 143 146 146 146 140 135 134 134 135 135 138 139 140 138 139 140 144 147 144 145 149 153 146 143 137 137 139 143 144 141 136 128 132 126 125 120 115 103 89 78 74 72 76 82 92 110 115 113 113 121 232 319 317 310 307 313 81 102 101 90 90 87 86 91 78 84 80 85 91 89 86 84 80 76 76 80 77
138 137 137 138 145 144 149 146 146 145 146 141 139 138 136 134 131 130 132 130 132 140 142 140 147 149 136 140 141 144 152 140 136 135 132 134 139 131 134 133 132 125 126 117 106 99 88 79 77 79 86 100 101 105 108 111 105 104 21 337 332 302 296 303 81 72 78 86 86 84 84 82 66 76 79 81 81 83 85 76 76 82 93 84 74
141 143 142 144 145 148 146 154 149 144 138 138 138 136 132 131 130 128 130 131 135 142 145 146 143 128 135 139 135 146 150 141 138 138 139 138 137 139 132 133 130 123 120 114 105 94 85 82 84 90 104 107 108 107 113 113 109 88 34 320 296 286 289 302 82 71 75 85 89 85 85 85 83 84 85 87 88 85 79 87 89 83 77 82 82
147 149 149 146 150 148 149 150 151 152 147 143 133 125 127 126 127 128 131 135 135 132 133 136 136 137 141 145 151 157 151 143 141 143 142 138 136 136 136 136 129 124 120 113 99 88 83 84 89 96 109 117 114 116 114 117 109 105 113 267 279 294 309 315 90 75 71 74 75 76 82 79 90 92 89 83 81 84 90 81 82 82 85 82 81
156 155 153 153 150 151 151 150 155 153 151 151 149 131 127 125 126 128 132 137 137 136 141 143 140 142 142 147 156 159 144 145 144 143 148 140 141 137 139 135 131 127 122 113 108 98 91 88 93 102 116 124 124 120 120 115 120 148 209 247 274 291 303 281 100 101 83 71 77 85 89 97 89 86 85 92 96 92 77 81 89 85 81 83 82
154 157 156 155 153 154 152 154 155 153 156 151 147 142 135 132 128 130 133 137 139 140 140 144 144 139 142 153 150 150 151 148 149 150 150 145 146 147 139 136 134 129 123 118 110 110 115 108 100 112 119 128 128 126 123 120 143 202 206 243 257 275 276 59 57 73 80 80 87 92 98 91 88 90 91 88 87 84 88 90 84 83 81 79 79
157 160 159 161 156 156 155 154 154 156 153 150 149 146 139 139 137 135 138 139 140 141 137 137 138 139 142 141 151 155 138 146 158 153 152 153 142 138 143 137 131 127 123 114 113 120 117 116 117 115 138 137 138 129 126 133 198 222 229 242 259 263 73 111 102 99 93 94 94 89 91 100 104 94 87 84 85 92 90 87 85 83 80 78 77
163 161 164 162 157 157 158 155 155 156 151 151 150 148 150 156 152 146 149 144 144 143 147 152 151 144 136 136 134 96 129 146 148 148 151 147 142 146 141 133 130 127 124 120 116 115 126 126 130 132 134 154 155 158 150 140 199 240 237 241 251 202 148 105 112 106 93 98 99 101 104 103 97 94 95 93 86 83 84 82 80 78 80 82 79
167 163 165 159 153 158 159 159 157 153 153 153 152 150 157 160 155 156 150 154 151 157 154 153 151 137 142 114 98 102 120 139 171 159 147 146 139 147 139 134 132 131 134 129 132 129 123 181 150 151 165 178 192 179 169 156 188 220 244 245 247 81 79 120 111 102 84 79 83 95 95 88 97 94 90 102 104 99 98 96 92 88 82 78 82
168 161 167 156 149 154 166 158 158 159 159 154 152 154 158 160 158 156 156 157 156 150 154 151 139 130 100 116 114 122 116 172 164 148 140 148 141 139 140 134 134 138 140 146 145 149 152 192 231 175 182 194 196 162 178 168 176 198 207 205 118 146 161 148 96 93 103 101 102 105 102 97 98 109 110 103 97 102 93 85 82 81 86 89 81
166 149 130 133 158 155 168 165 164 161 156 155 155 159 160 160 153 154 157 158 158 158 165 131 128 119 126 129 151 151 177 197 175 167 159 158 157 152 154 162 162 154 171 160 178 156 174 180 192 224 210 210 196 152 187 182 171 206 220 141 168 162 149 105 100 103 98 105 110 124 115 118 112 111 115 110 107 97 94 100 99 92 80 77 86
160 159 153 140 173 169 183 168 168 163 161 163 162 157 162 160 154 160 156 154 136 136 134 132 147 143 145 177 161 155 186 191 176 175 161 163 157 161 171 169 170 167 198 185 180 161 195 179 187 202 223 199 221 180 179 178 184 215 243 139 184 171 170 111 112 106 106 109 123 135 134 121 116 109 106 110 103 104 105 93 89 87 83 92 95
175 165 154 163 175 176 200 172 171 161 161 161 158 163 166 152 151 154 159 157 149 130 136 142 155 181 168 184 184 174 188 174 170 168 160 167 166 164 163 156 169 169 175 197 178 182 196 188 189 207 209 207 199 193 186 177 187 212 218 174 191 171 143 126 125 119 117 114 117 131 127 123 118 120 116 113 112 109 100 98 101 101 103 95 86
178 162 161 165 190 179 173 180 173 165 164 158 164 162 137 127 138 147 153 131 132 128 131 155 169 171 186 198 182 204 164 155 157 160 153 151 140 138 131 159 165 154 166 184 162 189 196 190 193 207 207 205 206 188 201 200 186 229 234 181 162 143 159 127 119 118 111 116 126 136 136 126 124 123 121 111 111 113 115 113 106 105 102 89 84
175 176 160 183 180 177 157 183 169 160 162 158 160 146 139 133 144 148 144 141 134 125 143 180 180 188 194 208 193 175 172 145 151 153 151 136 136 137 148 154 150 149 164 148 150 153 169 174 211 205 207 211 215 203 202 209 217 161 247 236 167 138 131 128 132 135 136 130 128 134 139 133 123 121 122 121 122 126 124 120 113 108 107 111 108
185 175 182 185 157 149 165 164 199 184 171 169 162 128 134 119 154 154 137 132 125 116 144 171 189 202 190 227 141 237 149 154 151 155 149 143 150 157 165 155 162 160 159 145 162 172 173 182 187 196 195 209 211 197 199 207 204 146 229 224 126 130 129 121 127 91 123 131 125 134 135 128 127 129 129 132 127 124 124 117 114 110 110 107 106
187 186 181 184 95 159 169 139 172 255 175 164 153 133 153 166 170 152 157 155 130 136 163 172 210 209 200 183 167 167 152 147 157 151 143 157 150 156 162 161 162 141 156 150 161 173 176 187 200 172 209 225 214 209 207 190 159 205 79 31 15 341 312 153 146 124 120 135 138 136 131 128 127 115 113 119 127 123 124 122 120 125 124 125 122
180 180 187 111 141 159 153 166 161 199 226 157 156 152 160 174 161 155 170 137 129 163 179 187 195 214 181 168 170 152 156 149 152 152 151 157 153 157 145 166 152 143 176 154 163 170 192 195 213 185 205 207 206 209 222 171 135 221 56 80 94 225 302 242 168 126 139 134 145 136 130 131 130 127 122 129 128 135 132 132 131 130 122 122 119
173 175 186 131 171 168 153 174 166 164 181 190 176 164 164 168 166 150 157 129 152 171 191 213 211 177 159 164 160 157 161 149 155 158 152 163 147 155 158 161 168 168 157 157 167 182 192 189 189 223 212 235 225 213 222 148 107 113 161 104 127 155 285 299 337 139 133 136 140 116 95 113 133 136 138 134 140 142 126 114 111 108 120 121 130
169 184 158 153 178 161 154 149 169 165 213 191 184 178 171 173 149 152 160 156 166 180 196 158 214 174 169 167 163 160 167 158 160 154 169 153 152 171 161 171 172 160 149 173 181 203 204 183 200 211 202 219 221 195 216 74 97 188 124 144 137 138 221 244 200 149 82 103 66 70 92 223 172 155 136 131 135 129 104 120 122 118 110 104 108
173 181 176 167 170 166 165 152 158 191 191 190 191 185 185 165 162 148 161 171 168 174 178 167 167 164 162 163 170 161 171 160 162 162 180 159 161 173 166 171 148 169 182 192 203 208 178 197 203 222 173 244 277 205 128 345 108 115 126 145 113 148 206 184 86 107 101 114 94 102 169 167 60 37 133 135 122 116 112 119 110 104 105 99 106
187 183 176 168 172 175 165 151 173 187 189 174 187 174 175 175 175 159 159 171 171 174 163 162 168 163 167 158 171 166 174 167 163 167 177 173 171 160 183 161 150 195 183 166 235 204 169 204 218 56 318 219 188 165 295 96 174 138 124 116 87 132 205 156 174 176 127 85 96 130 107 114 126 119 134 125 125 116 111 103 92 88 85 83 76
187 188 182 178 177 181 175 158 180 174 162 183 180 168 191 186 157 160 162 175 163 170 163 166 175 169 171 162 172 169 181 168 170 175 175 190 177 158 189 135 175 182 157 171 212 48 241 215 225 205 198 256 238 175 190 163 112 101 89 58 81 314 320 122 222 151 89 82 105 113 144 124 127 135 127 124 125 120 111 111 105 94 84 84 76
190 192 189 184 180 188 180 176 174 171 177 173 170 167 172 183 140 158 159 164 168 147 146 198 169 180 174 164 171 172 180 170 178 173 184 199 187 165 144 166 173 168 168 191 211 167 192 193 202 218 238 215 213 208 206 174 125 116 71 102 141 317 9 12 291 89 91 103 100 119 123 117 127 129 127 120 112 122 121 112 102 85 74 63 63
194 195 192 189 188 190 185 179 175 171 167 172 162 168 129 170 204 153 153 159 174 160 170 205 183 177 152 178 169 170 178 170 180 174 185 183 198 146 154 165 173 175 177 198 175 190 184 171 203 191 227 243 211 213 246 121 78 44 126 64 68 85 102 315 266 103 114 125 120 134 130 123 120 126 124 130 130 139 142 132 121 104 89 77 68
198 199 197 194 197 193 187 182 177 172 156 164 154 146 173 181 191 166 154 154 195 172 182 185 185 177 180 192 171 173 174 173 177 176 188 189 181 165 160 174 180 187 176 203 181 174 180 182 185 190 189 218 208 106 97 64 78 107 107 123 73 77 194 210 22 75 105 156 124 115 108 109 121 132 134 127 128 154 155 128 147 260 123 115 92
201 203 200 199 200 199 191 181 172 172 160 172 183 179 179 195 187 159 153 168 176 179 177 193 184 195 187 174 167 184 168 171 178 179 184 192 181 169 170 186 187 194 179 195 176 168 179 182 186 178 189 196 170 121 34 104 108 105 134 120 138 180 331 47 112 35 145 169 145 129 133 124 124 135 107 96 124 226 134 151 119 240 164 126 102
207 208 203 202 199 203 202 187 164 180 165 172 172 164 194 175 202 170 187 171 160 177 183 191 160 25 318 206 172 185 161 173 180 187 198 183 191 158 185 188 192 190 188 180 170 167 181 189 178 183 192 199 172 102 121 136 161 165 156 141 121 77 80 136 82 104 51 55 32 97 113 77 85 91 100 95 346 31 64 216 157 164 151 122 110
212 211 211 208 203 200 212 200 170 187 168 172 206 159 264 234 197 141 151 163 164 184 199 124 111 220 244 229 160 181 168 172 183 187 183 190 187 180 189 203 185 188 180 175 171 177 187 194 191 189 185 221 143 123 143 220 187 171 155 153 157 159 139 140 111 109 105 92 151 145 158 131 108 88 96 148 168 157 194 197 116 119 92 117 112
215 212 211 213 210 195 198 196 132 186 161 173 166 169 137 41 34 50 55 46 151 140 30 51 333 288 226 274 159 221 172 193 182 183 193 188 190 173 186 198 179 187 171 180 180 187 181 196 190 200 203 196 182 165 154 119 252 163 178 208 155 167 153 170 142 112 145 144 129 142 53 88 95 138 155 132 203 203 116 101 99 90 103 100 105
220 214 208 209 210 201 192 171 197 192 174 129 124 87 91 116 135 104 116 131 100 89 97 194 241 147 252 231 256 187 188 190 184 193 193 187 174 194 179 196 176 174 174 185 217 195 192 194 191 195 209 210 182 99 177 133 208 260 256 165 161 194 205 129 135 122 125 117 107 128 102 125 126 151 199 158 136 106 108 103 100 102 110 112 115
222 215 212 209 210 194 199 190 176 85 130 132 107 110 132 165 151 144 158 175 153 172 200 200 201 193 191 229 203 190 186 197 189 194 194 184 193 191 191 154 200 168 183 188 210 196 204 193 188 188 193 226 202 154 173 156 169 206 252 304 37 351 153 144 164 149 97 128 141 142 118 125 155 155 185 173 146 128 124 110 103 96 93 118 110
222 215 208 203 202 182 213 200 133 103 159 111 129 148 154 160 152 152 165 162 173 183 192 211 200 180 219 217 216 182 195 187 192 185 184 189 187 193 188 199 164 184 185 196 196 208 200 204 179 180 190 180 184 208 162 161 160 221 221 252 247 166 137 161 176 131 142 116 113 114 114 122 126 137 121 134 123 119 108 111 110 98 96 87 87
228 218 195 205 196 12 307 254 124 109 83 119 138 164 167 160 159 151 144 150 166 173 166 230 225 256 229 213 196 186 190 187 183 188 182 188 185 191 183 191 194 185 185 187 184 202 195 204 176 178 185 167 190 203 187 157 199 209 214 205 203 209 159 135 163 326 167 148 138 119 126 131 137 133 142 133 99 106 118 128 118 109 93 85 85
231 68 36 70 40 22 2 334 81 130 193 161 156 173 163 175 165 157 163 150 153 133 145 119 203 240 249 218 163 190 189 185 181 181 181 180 184 183 184 181 187 189 185 191 187 190 176 194 157 175 136 162 159 194 269 187 177 246 218 198 177 123 163 159 170 144 234 166 150 153 135 134 138 129 123 125 126 131 129 107 102 110 112 117 115
83 99 98 94 85 170 162 147 150 174 170 154 144 143 152 220 166 175 151 144 146 159 178 164 178 219 240 239 174 194 174 168 178 176 175 173 178 177 180 181 185 183 194 176 180 170 184 179 171 160 162 156 150 207 207 214 153 207 220 208 186 143 229 168 169 184 199 226 175 161 155 148 138 130 122 133 139 131 122 131 135 119 113 110 105
102 104 106 97 121 127 171 146 108 121 190 138 121 127 181 201 182 174 150 148 150 169 173 181 188 154 216 264 196 177 171 163 169 166 176 175 174 174 179 176 179 174 190 160 174 163 178 167 173 158 167 180 179 198 205 206 202 193 215 154 169 137 101 261 125 178 183 192 131 151 154 155 140 132 157 153 141 146 135 124 115 120 123 115 112